Weather reports worldwide

Advertisment
Nancy/Essey, France (7180): temperature & dewpoint: 14.06.2018 11:00:00 - 20.06.2018 11:00:00 (CEST)Nancy/Essey, France (7180): temperature 5cm: 14.06.2018 11:00:00 - 20.06.2018 11:00:00 (CEST)Nancy/Essey, France (7180): temperature -20cm & temperature -100cm: 14.06.2018 11:00:00 - 20.06.2018 11:00:00 (CEST)Nancy/Essey, France (7180): wind speed & gusts: 14.06.2018 11:00:00 - 20.06.2018 11:00:00 (CEST)Nancy/Essey, France (7180): wind direction: 14.06.2018 11:00:00 - 20.06.2018 11:00:00 (CEST)Nancy/Essey, France (7180): reduced air pressure: 14.06.2018 11:00:00 - 20.06.2018 11:00:00 (CEST)Nancy/Essey, France (7180): visibility: 14.06.2018 11:00:00 - 20.06.2018 11:00:00 (CEST)Nancy/Essey, France (7180): sunshine duration: 14.06.2018 11:00:00 - 20.06.2018 11:00:00 (CEST)Nancy/Essey, France (7180): precipitation: 14.06.2018 11:00:00 - 20.06.2018 11:00:00 (CEST)
Date & Time tt [°C] td [°C] tt 5cm [°C] tt -20cm [°C] tt -100cm [°C] ff [km/h] ff [kn] fx [km/h] fx [kn] dd ppp [hPa] vv [km] sd [min] rr [mm]
20.06.2018 11:00:00 24,2 17,2 30,7 20,4 17,9 5 3 16 9 NE 1021,3 19 60 0,0
20.06.2018 10:00:00 22,4 16,7 27,0 20,5 17,9 8 4 19 11 NE 1021,7 20 60 0,0
20.06.2018 09:00:00 21,0 16,2 23,8 20,5 17,8 8 4 18 10 ENE 1022,1 46 60 0,0
20.06.2018 08:00:00 19,8 15,9 17,6 20,6 17,8 3 2 11 6 N 1022,2 27 60 0,0
20.06.2018 07:00:00 17,5 14,8 10,3 20,7 17,8 1 1 4 2 N 1022,4 23 60 0,0
20.06.2018 06:00:00 13,5 12,9 9,2 20,9 17,9 2 1 6 4 ENE 1023,0 18 0 0,0
20.06.2018 05:00:00 13,3 12,4 9,8 21,0 17,9 5 3 8 4 SE 1023,3 6 0 0,0
20.06.2018 04:00:00 14,4 13,3 10,0 21,1 17,9 2 1 5 3 SSW 1023,5 32 0 0,0
20.06.2018 03:00:00 15,2 13,4 10,6 21,2 17,9 2 1 5 3 W 1023,6 32 0 0,0
20.06.2018 02:00:00 16,2 14,0 11,4 21,3 17,8 2 1 6 3 SSE 1024,0 60 0 0,0
20.06.2018 01:00:00 17,2 14,1 12,4 21,3 17,8 2 1 14 8 W 1024,0 60 0 0,0
20.06.2018 00:00:00 18,2 14,7 12,8 21,4 17,8 6 3 10 6 WNW 1024,1 60 0 0,0
19.06.2018 23:00:00 18,3 14,4 13,7 21,4 17,9 2 1 18 10 ESE 1024,1 18 0 0,0
19.06.2018 22:00:00 19,8 14,6 17,8 21,4 17,9 12 6 21 11 NNW 1023,7 60 12 0,0
19.06.2018 21:00:00 21,5 15,1 20,3 21,3 17,8 13 7 23 13 N 1023,5 60 60 0,0
19.06.2018 20:00:00 23,1 15,7 24,8 21,2 17,9 13 7 25 13 N 1023,5 59 60 0,0
19.06.2018 19:00:00 24,0 15,5 28,5 21,0 17,9 14 8 24 13 N 1023,5 20 60 0,0
19.06.2018 18:00:00 24,8 15,4 31,4 20,8 17,9 11 6 22 12 N 1023,6 49 60 0,0
19.06.2018 17:00:00 24,9 16,1 29,4 20,6 17,9 13 7 28 15 N 1024,0 60 58 0,0
19.06.2018 16:00:00 25,0 15,3 30,5 20,4 17,9 10 5 23 13 NW 1024,2 60 57 0,0
19.06.2018 15:00:00 24,5 16,2 26,8 20,2 17,9 5 3 22 12 NNW 1024,4 60 40 0,0
19.06.2018 14:00:00 23,2 15,0 25,7 20,1 17,9 11 6 24 13 NW 1024,8 56 45 0,0
19.06.2018 13:00:00 22,2 15,3 23,3 20,0 17,9 9 5 22 12 N 1025,1 53 57 0,0
19.06.2018 12:00:00 20,3 14,0 22,6 19,9 17,9 15 8 26 14 WNW 1025,5 54 25 0,0
19.06.2018 11:00:00 20,4 13,6 21,9 19,9 17,9 10 5 19 10 NW 1025,6 20 38 0,0
19.06.2018 10:00:00 20,0 14,6 19,8 20,0 17,9 9 5 19 10 NW 1025,8 44 40 0,0
19.06.2018 09:00:00 18,4 14,3 18,9 20,0 17,9 9 5 19 10 WNW 1025,8 45 48 0,0
19.06.2018 08:00:00 18,3 14,8 16,4 20,1 17,9 9 5 13 7 NW 1025,6 36 60 0,0
19.06.2018 07:00:00 15,8 14,5 10,7 20,2 17,9 2 1 8 4 WSW 1025,4 37 60 0,0
19.06.2018 06:00:00 13,4 12,8 9,2 20,3 17,9 5 3 8 5 SE 1025,4 16 0 0,0
19.06.2018 05:00:00 14,0 12,4 9,8 20,4 17,9 3 2 9 5 SE 1024,9 4,2 0 0,0
19.06.2018 04:00:00 14,3 13,5 9,6 20,5 17,9 4 2 7 4 ESE 1024,9 40 0 0,0
19.06.2018 03:00:00 13,4 12,6 9,4 20,6 17,9 5 3 7 4 E 1024,8 39 0 0,0
19.06.2018 02:00:00 13,5 12,6 9,9 20,7 17,9 6 3 9 5 ESE 1024,6 58 0 0,0
19.06.2018 01:00:00 14,2 12,4 10,4 20,8 17,9 4 2 8 4 ESE 1024,3 8 0 0,0
19.06.2018 00:00:00 17,5 13,2 12,9 20,8 17,9 3 2 18 10 SW 1024,0 60 0 0,0
18.06.2018 23:00:00 18,0 13,3 12,7 20,8 17,9 5 3 14 8 WNW 1024,2 60 0 0,0
18.06.2018 22:00:00 19,0 13,4 16,1 20,8 17,9 7 4 16 9 SW 1023,6 6 12 0,0
18.06.2018 21:00:00 20,6 14,0 18,7 20,8 17,9 7 4 23 12 WSW 1023,0 60 51 0,0
18.06.2018 20:00:00 21,2 14,4 21,4 20,8 17,9 11 6 21 11 W 1022,6 59 22 0,0
18.06.2018 19:00:00 20,6 14,3 20,0 20,7 17,9 9 5 29 16 W 1022,9 60 0 0,0
18.06.2018 18:00:00 20,8 13,7 20,6 20,6 17,9 15 8 30 16 W 1023,1 60 0 0,0
18.06.2018 17:00:00 21,5 13,7 22,2 20,6 17,9 13 7 23 13 W 1022,7 59 0 0,0
18.06.2018 16:00:00 21,4 13,1 22,6 20,4 17,9 11 6 24 13 W 1022,9 52 0 0,0
18.06.2018 15:00:00 21,8 12,9 24,0 20,3 17,9 10 5 24 13 WSW 1022,8 26 0 0,0
18.06.2018 14:00:00 21,3 12,4 22,9 20,3 17,9 11 6 26 14 W 1022,9 53 6 0,0
18.06.2018 13:00:00 21,4 12,5 23,7 20,2 17,9 10 5 22 12 SW 1023,1 46 7 0,0
18.06.2018 12:00:00 20,7 11,3 24,2 20,1 17,9 11 6 23 12 W 1023,0 35 21 0,0
18.06.2018 11:00:00 20,4 11,3 22,6 20,1 17,9 9 5 24 13 SW 1022,9 20 10 0,0
18.06.2018 10:00:00 20,1 10,8 22,4 20,2 17,9 12 6 24 13 WSW 1022,9 53 51 0,0
18.06.2018 09:00:00 19,2 11,7 19,8 20,2 17,9 11 6 18 10 SW 1022,8 49 41 0,0
18.06.2018 08:00:00 16,9 12,6 15,7 20,4 17,9 4 2 8 4 SSE 1022,9 37 56 0,0
18.06.2018 07:00:00 14,8 12,5 8,4 20,5 17,9 1 1 5 3 E 1022,9 18 60 0,0
18.06.2018 06:00:00 11,2 10,3 6,8 20,7 17,9 3 2 6 3 ENE 1023,0 16 0 0,0
18.06.2018 05:00:00 11,5 10,7 6,7 20,8 17,9 3 2 5 3 NNE 1022,7 20 0 0,0
18.06.2018 04:00:00 11,6 10,5 7,4 20,9 17,9 4 2 5 3 ESE 1022,9 35 0 0,0
18.06.2018 03:00:00 12,4 10,8 8,5 21,0 17,9 3 1 8 4 E 1022,9 53 0 0,0
18.06.2018 02:00:00 13,2 11,3 9,8 21,0 17,9 5 3 6 3 ESE 1022,7 58 0 0,0
18.06.2018 01:00:00 15,3 11,1 11,8 21,1 17,9 1 1 10 5 SW 1022,4 60 0 0,0
18.06.2018 00:00:00 16,1 11,9 13,4 21,2 17,9 1 1 8 4 E 1022,2 60 0 0,0
17.06.2018 23:00:00 17,6 10,9 15,0 21,2 17,9 4 2 13 7 WNW 1021,6 60 0 0,0
17.06.2018 22:00:00 17,9 11,0 16,2 21,2 17,9 6 4 18 10 WNW 1021,2 44 0 0,0
17.06.2018 21:00:00 18,6 10,9 17,7 21,2 17,9 10 6 22 12 WNW 1021,1 57 0 0,0
17.06.2018 20:00:00 19,2 11,2 18,7 21,2 17,9 10 5 29 16 W 1020,7 58 30 0,0
17.06.2018 19:00:00 19,8 11,6 20,2 21,1 17,9 15 8 34 18 WNW 1020,1 59 41 0,0
17.06.2018 18:00:00 19,5 11,0 20,8 21,0 17,9 16 9 34 18 WNW 1020,1 57 19 0,0
17.06.2018 17:00:00 19,5 12,0 20,3 21,0 17,9 12 7 25 14 WNW 1019,7 50 0 0,0
17.06.2018 16:00:00 20,0 11,2 20,6 20,9 17,9 14 8 36 19 W 1019,6 58 2 0,0
17.06.2018 15:00:00 21,1 11,4 22,2 20,8 17,9 16 9 39 21 W 1019,2 60 7 0,0
17.06.2018 14:00:00 20,7 12,4 21,3 20,8 17,9 20 11 36 19 WNW 1019,2 20 5 0,0
17.06.2018 13:00:00 21,3 11,9 21,5 20,7 17,9 13 7 28 15 W 1019,0 55 0 0,0
17.06.2018 12:00:00 20,5 11,7 21,8 20,6 17,9 16 9 31 17 W 1018,9 59 25 0,0
17.06.2018 11:00:00 21,5 11,2 23,1 20,7 17,9 12 7 23 12 SW 1018,9 46 43 0,0
17.06.2018 10:00:00 20,8 10,3 21,0 20,7 17,9 7 4 15 8 W 1018,8 51 47 0,0
17.06.2018 09:00:00 18,1 14,0 18,6 20,8 17,9 5 3 9 5 SE 1019,0 20 5 0,0
17.06.2018 08:00:00 17,0 13,5 15,8 20,8 17,9 5 3 8 4 SE 1018,8 36 20 0,0
17.06.2018 07:00:00 15,6 13,1 14,1 20,9 17,9 2 1 9 5 SSE 1018,7 40 0 0,0
17.06.2018 06:00:00 15,4 12,0 13,1 21,0 17,9 3 2 6 4 SW 1018,5 46 0 0,0
17.06.2018 05:00:00 14,3 12,3 12,9 21,2 17,9 4 2 6 3 N 1018,2 18 0 0,0
17.06.2018 04:00:00 13,3 12,4 8,5 21,3 17,9 5 3 7 4 SE 1018,4 39 0 0,0
17.06.2018 03:00:00 13,0 11,6 8,7 21,3 17,8 3 2 5 3 ESE 1018,2 45 0 0,0
17.06.2018 02:00:00 14,3 11,8 9,9 21,4 17,8 2 1 8 5 ESE 1017,9 51 0 0,0
17.06.2018 01:00:00 17,2 11,5 12,5 21,5 17,9 4 2 9 5 NW 1017,6 60 0 0,0
17.06.2018 00:00:00 17,9 11,7 14,6 21,6 17,9 5 3 16 9 WNW 1017,5 60 0 0,0
16.06.2018 23:00:00 18,9 12,2 17,1 21,6 17,9 11 6 22 12 WNW 1017,1 60 0 0,0
16.06.2018 22:00:00 20,0 13,2 18,0 21,6 17,9 9 5 22 12 WNW 1016,4 60 11 0,0
16.06.2018 21:00:00 21,3 13,2 20,5 21,5 17,9 13 7 29 15 WNW 1015,9 53 36 0,0
16.06.2018 20:00:00 21,8 14,4 21,0 21,5 17,9 13 7 36 19 WNW 1015,4 60 16 0,0
16.06.2018 19:00:00 22,1 12,9 21,7 21,3 17,9 19 10 35 19 WNW 1015,2 58 0 0,0
16.06.2018 18:00:00 23,0 15,3 23,6 21,2 17,9 17 9 34 18 NW 1014,8 60 23 0,0
16.06.2018 17:00:00 23,3 15,4 24,1 21,0 17,9 22 12 37 20 W 1014,8 56 13 0,0
16.06.2018 16:00:00 26,2 11,9 29,0 20,8 17,9 5 3 17 9 WNW 1014,3 47 43 0,0
16.06.2018 15:00:00 25,5 12,7 27,7 20,7 17,9 5 3 15 8 SSW 1014,7 20 17 0,0
16.06.2018 14:00:00 24,2 12,5 26,2 20,5 17,9 9 5 19 10 SSE 1015,2 59 22 0,0
16.06.2018 13:00:00 23,9 11,6 28,1 20,4 17,9 7 4 17 9 SSE 1015,6 60 49 0,0
16.06.2018 12:00:00 23,8 13,9 28,4 20,4 17,9 5 3 16 9 S 1015,7 19 55 0,0
16.06.2018 11:00:00 22,6 14,4 26,8 20,4 17,9 6 4 16 8 SE 1016,0 20 46 0,0
16.06.2018 10:00:00 21,7 14,6 25,1 20,4 17,9 5 3 13 7 SE 1016,1 19 60 0,0
16.06.2018 09:00:00 18,3 14,4 18,2 20,5 17,8 5 3 10 5 WNW 1016,6 20 47 0,0
16.06.2018 08:00:00 15,6 13,8 15,4 20,6 17,9 3 1 7 4 SSE 1016,6 11 12 0,0
16.06.2018 07:00:00 15,1 13,8 10,2 20,7 17,9 1 0 8 4 WSW 1016,5 10 60 0,0
16.06.2018 06:00:00 11,6 11,0 8,9 20,9 17,9 6 4 8 4 ESE 1016,9 12 0 0,0
16.06.2018 05:00:00 12,0 11,2 8,1 21,0 17,9 1 1 4 2 E 1016,6 9 0 0,2
16.06.2018 04:00:00 12,7 11,9 8,3 21,1 17,9 1 1 4 2 WNW 1016,6 10 0 0,0
16.06.2018 03:00:00 13,4 12,3 9,4 21,2 17,9 3 2 4 2 SE 1016,7 18 0 0,0
16.06.2018 02:00:00 13,5 12,1 9,3 21,3 17,9 2 1 4 2 NNE 1017,1 25 0 0,0
16.06.2018 01:00:00 14,4 13,1 9,6 21,4 17,9 3 1 7 4 N 1017,0 20 0 0,0
16.06.2018 00:00:00 15,2 13,0 10,9 21,4 17,9 3 2 7 4 ENE 1016,8 35 0 0,0
15.06.2018 23:00:00 16,6 13,5 11,7 21,4 17,9 2 1 6 3 SSE 1016,9 59 0 0,0
15.06.2018 22:00:00 17,9 13,6 13,0 21,4 17,9 1 1 11 6 SE 1016,6 6 0 0,0
15.06.2018 21:00:00 20,7 14,3 19,5 21,4 17,9 7 4 13 7 NE 1016,3 60 44 0,0
15.06.2018 20:00:00 22,3 14,4 22,2 21,3 17,9 8 4 14 8 NNE 1016,1 58 38 0,0
15.06.2018 19:00:00 21,6 13,0 22,1 21,3 17,9 3 2 8 4 NNE 1016,3 60 0 0,0
15.06.2018 18:00:00 21,7 13,1 22,8 21,2 17,9 3 2 7 4 NNE 1016,3 55 0 0,0
15.06.2018 17:00:00 21,5 12,6 21,1 21,1 17,9 3 1 10 6 NW 1016,3 50 0 0,0
15.06.2018 16:00:00 21,0 13,2 20,7 20,9 17,9 3 2 19 10 NE 1016,6 60 0 0,0
15.06.2018 15:00:00 22,0 12,5 24,3 20,8 17,9 6 3 19 11 ENE 1016,5 52 31 0,0
15.06.2018 14:00:00 21,8 12,9 26,3 20,7 17,9 4 2 19 10 NNE 1016,8 54 16 0,0
15.06.2018 13:00:00 21,4 12,5 25,8 20,6 17,9 8 4 18 10 NE 1016,9 20 30 0,0
15.06.2018 12:00:00 20,6 12,8 24,6 20,6 17,9 4 2 12 6 NNE 1017,2 20 6 0,0
15.06.2018 11:00:00 20,1 12,3 26,4 20,6 17,9 7 4 15 8 NE 1017,2 20 53 0,0
15.06.2018 10:00:00 19,1 12,8 21,0 20,6 17,9 5 3 9 5 ENE 1017,4 20 28 0,0
15.06.2018 09:00:00 16,8 13,5 16,9 20,7 17,9 3 2 6 3 ENE 1017,7 20 0 0,0
15.06.2018 08:00:00 15,5 13,7 14,8 20,7 17,9 2 1 5 3 N 1017,4 29 0 0,0
15.06.2018 07:00:00 14,7 13,2 14,0 20,8 17,9 3 2 6 3 SSE 1017,2 20 0 0,0
15.06.2018 06:00:00 14,2 13,4 13,6 20,9 17,9 4 2 6 3 ESE 1017,2 13 0 0,0
15.06.2018 05:00:00 14,0 13,2 13,3 21,0 17,9 5 3 6 3 E 1017,3 9 0 0,0
15.06.2018 04:00:00 13,9 12,8 13,0 21,0 17,9 4 2 7 4 ESE 1017,3 13 0 0,0
15.06.2018 03:00:00 14,3 13,3 13,5 21,1 17,9 3 2 9 5 SE 1017,5 12 0 0,0
15.06.2018 02:00:00 14,5 13,5 14,1 21,2 17,9 3 2 6 3 E 1017,9 15 0 0,0
15.06.2018 01:00:00 14,6 13,5 14,1 21,2 17,9 5 3 7 4 SE 1018,2 18 0 0,0
15.06.2018 00:00:00 14,9 12,9 13,6 21,3 17,9 1 1 11 6 W 1018,4 33 0 0,0
14.06.2018 23:00:00 14,8 12,8 13,7 21,3 17,9 4 2 19 11 NW 1018,3 29 0 0,2
14.06.2018 22:00:00 15,1 13,0 13,9 21,3 17,9 12 6 29 15 NW 1017,9 11 0 1,0
14.06.2018 21:00:00 16,6 11,9 15,0 21,3 17,9 15 8 33 18 NW 1017,1 32 0 0,0
14.06.2018 20:00:00 19,4 10,1 18,8 21,2 17,9 10 5 19 10 NW 1016,1 60 0 0,0
14.06.2018 19:00:00 19,8 9,7 19,9 21,1 17,9 10 6 23 12 NW 1015,8 60 0 0,0
14.06.2018 18:00:00 20,5 9,4 21,7 20,9 17,9 11 6 27 14 NW 1015,8 49 11 0,0
14.06.2018 17:00:00 20,5 8,5 21,9 20,8 17,9 10 6 18 10 W 1015,8 29 18 0,0
14.06.2018 16:00:00 21,7 10,5 24,1 20,6 17,9 4 2 18 10 ENE 1015,7 20 21 0,0
14.06.2018 15:00:00 20,1 9,6 22,6 20,5 17,9 4 2 26 14 N 1016,1 47 33 0,0
14.06.2018 14:00:00 20,6 11,0 25,6 20,4 17,9 5 3 16 9 NE 1016,6 39 58 0,0
14.06.2018 13:00:00 19,7 9,6 22,6 20,3 17,9 5 3 18 10 SE 1017,0 33 16 0,0
14.06.2018 12:00:00 18,4 7,8 21,4 20,2 17,9 9 5 18 10 SW 1017,2 30 30 0,0
14.06.2018 11:00:00 18,4 8,6 19,1 20,3 17,9 8 4 16 8 SE 1017,1 20 34 0,0

tt = temperature
td = dewpoint
tt 5cm = temperature 5cm
tt -20cm = temperature -20cm
tt -100cm = temperature -100cm
ff = wind speed
fx = gusts
dd = wind direction
ppp = reduced air pressure
vv = visibility
sd = sunshine duration
rr = precipitation

Next stations